EHI
0 0 0 0 0 0 0 0 0 0 0 0 0 0 0 0 0 0 0 0 0 0 0 0 1 2 3 3 3 3 3 2 1 0 0 1 2 1 0 0 0 0 0 0
0 0 0 0 0 0 0 0 0 0 0 0 0 0 0 0 0 0 0 0 0 0 0 0 0 1 2 3 3 3 2 1 0 0 0 1 1 1 0 0 0 0 0 0
0 0 0 0 0 0 0 0 0 0 0 0 0 0 0 0 0 0 0 0 0 0 0 0 0 0 1 2 2 2 1 0 0 0 0 0 0 0 0 0 0 0 0 0
0 0 0 0 0 0 0 0 0 0 0 0 0 0 0 0 0 0 0 0 0 0 0 0 0 0 0 1 1 1 0 0 0 0 0 0 0 0 0 0 0 0 0 0
0 0 0 0 0 0 0 0 0 0 0 0 0 0 0 0 0 0 0 0 0 0 0 0 0 0 0 0 0 0 0 0 0 0 0 0 0 0 0 0 0 0 0 0
0 0 0 0 0 0 0 0 0 0 0 0 0 0 0 0 0 0 0 0 0 0 0 0 0 0 0 0 0 0 0 0 0 0 0 0 0 0 0 0 0 0 0 0
0 0 0 0 0 0 0 0 0 0 0 0 0 0 0 0 0 0 0 0 0 0 0 0 0 0 0 0 0 0 0 0 0 0 0 0 0 0 0 0 0 0 0 0
0 0 0 0 0 0 0 0 0 0 0 0 0 0 0 0 0 0 0 0 0 0 0 0 0 0 0 0 0 0 0 0 0 0 0 0 0 0 0 0 0 0 0 0
0 0 0 0 0 0 0 0 0 0 0 0 0 0 0 0 0 0 0 0 0 0 0 0 0 0 0 0 0 0 0 0 0 0 0 0 0 0 0 0 0 0 0 0
0 0 0 0 0 0 0 0 0 0 0 0 0 0 0 0 0 0 0 0 0 0 0 0 0 0 0 0 0 0 0 0 0 0 0 0 0 0 0 0 0 0 0 0
0 0 0 0 0 0 0 0 0 0 0 0 0 0 0 0 0 0 0 0 0 0 0 0 0 0 0 0 0 0 0 0 0 0 0 0 0 0 0 0 0 0 0 0
0 0 0 0 0 0 0 0 0 0 0 0 0 0 0 0 0 0 0 0 0 0 0 0 0 0 0 0 0 0 0 0 0 0 0 0 0 0 0 0 0 0 0 0
0 0 0 0 0 0 0 0 0 0 0 0 0 0 0 0 0 0 0 0 0 0 0 0 0 0 0 0 0 0 0 0 0 0 0 0 0 0 0 0 0 0 0 0
0 0 0 0 0 0 0 0 0 0 0 0 0 0 0 0 0 0 0 0 0 0 0 0 0 0 0 0 0 0 0 0 0 0 0 0 0 0 0 0 0 0 0 0
0 0 0 0 0 0 0 0 0 0 0 0 0 0 0 0 0 0 0 0 0 0 0 0 0 0 0 0 0 0 0 0 0 0 0 0 0 0 0 0 0 0 0 0
0 0 0 0 0 0 0 0 0 0 0 0 0 0 0 0 0 0 0 0 0 0 0 0 0 0 0 0 0 0 0 0 0 0 0 0 0 0 0 0 0 0 0 0
0 0 0 0 0 0 0 0 0 0 0 0 0 0 0 0 0 0 0 0 0 0 0 0 0 0 0 0 0 0 0 0 0 0 0 0 0 0 0 0 0 0 0 0
0 0 0 0 0 0 0 0 0 0 0 0 0 0 0 0 0 0 0 0 0 0 0 0 0 0 0 0 0 0 0 0 0 0 0 0 0 0 0 0 0 0 0 0
0 0 0 0 0 0 0 0 0 0 0 0 0 0 0 0 0 0 0 0 0 0 0 0 0 0 0 0 0 0 0 0 0 0 0 0 0 0 0 0 0 0 0 0
0 0 0 0 0 0 0 0 0 0 0 0 0 0 0 0 0 0 0 0 0 0 0 0 0 0 0 0 0 0 0 0 0 0 0 0 0 0 0 0 0 0 0 0
0 0 0 0 0 0 0 0 0 0 0 0 0 0 0 0 0 0 0 0 0 0 0 0 0 0 0 0 0 0 0 0 0 0 0 0 0 0 0 0 0 0 0 0
0 0 0 0 0 0 0 0 0 0 0 0 0 0 0 0 0 0 0 0 0 0 0 0 0 0 0 0 0 0 0 0 0 0 0 0 0 0 0 0 0 0 0 0
0 0 0 0 0 0 0 0 0 0 0 0 0 0 0 0 0 0 0 0 0 0 0 0 0 0 0 0 0 0 0 0 0 0 0 0 0 0 0 0 0 0 0 0
0 0 0 0 0 0 0 0 0 0 0 0 0 0 0 0 0 0 0 0 0 0 0 0 0 0 0 0 0 0 0 0 0 0 0 0 0 0 0 0 0 0 0 0
0 0 0 0 0 0 0 0 0 0 0 0 0 0 0 0 0 0 0 0 0 0 0 0 0 0 0 0 0 0 0 0 0 0 0 0 0 0 0 0 0 0 0 0
0 0 0 0 0 0 0 0 0 0 0 0 0 0 0 0 0 0 0 0 0 0 0 0 0 0 0 0 0 0 0 0 0 0 0 0 0 0 0 0 0 0 0 0
Wind_Speed
1 2 4 7 8 5 4 4 6 7 4 3 8 11 11 8 6 7 7 7 6 6 5 4 4 4 4 5 5 6 6 6 5 4 4 4 3 2 2 3 4 4 4 4
1 5 7 4 4 4 5 6 7 7 4 4 7 11 10 7 7 7 8 7 6 4 3 2 2 3 4 6 6 6 6 6 5 5 4 3 3 2 2 2 3 4 4 4
5 5 3 3 3 4 6 6 7 7 6 4 4 8 6 5 4 3 4 4 4 5 4 3 2 3 4 5 6 6 6 6 5 4 3 3 3 2 1 1 2 3 3 4
4 4 2 3 5 5 7 5 5 5 3 5 1 6 7 5 4 4 4 3 2 2 2 2 3 3 4 5 5 6 6 5 4 5 5 6 5 3 3 2 2 3 3 3
5 3 3 5 5 4 5 3 3 4 3 4 2 4 9 3 4 6 5 3 3 3 3 3 3 3 3 4 4 5 5 5 4 5 6 6 4 3 2 2 3 2 2 3
5 3 3 4 3 3 1 2 3 2 1 5 5 5 8 4 5 4 3 2 2 2 1 1 1 2 2 2 3 4 5 4 4 5 5 6 5 4 4 3 3 2 1 2
4 4 2 1 1 1 2 3 3 3 2 7 3 4 8 5 3 3 3 2 2 2 1 1 1 1 2 2 3 3 5 4 4 5 5 5 5 6 6 5 4 3 2 2
2 5 4 2 4 4 4 5 5 4 5 5 2 6 6 3 1 1 1 1 0 1 1 0 1 1 2 2 3 3 4 3 4 4 5 4 5 4 4 4 4 4 3 3
4 5 3 3 2 4 3 3 3 3 2 3 5 5 6 2 3 3 2 2 1 0 1 1 1 1 1 2 3 4 4 3 3 4 4 4 4 4 4 4 3 3 2 2
3 4 4 3 0 1 3 4 3 3 3 5 5 4 5 2 2 1 1 1 2 1 0 0 0 1 1 1 1 2 3 3 3 3 3 3 4 4 4 4 4 4 3 3
1 2 4 1 3 4 1 1 2 2 2 3 4 6 3 4 3 2 1 2 2 1 1 1 1 1 0 0 1 1 2 2 2 2 3 3 3 3 3 4 4 4 3 4
2 2 3 5 4 2 3 4 5 3 4 3 3 8 3 2 2 1 1 2 2 1 1 1 1 1 0 1 1 1 1 2 2 3 3 3 3 3 3 3 3 4 4 4
3 3 1 4 3 2 1 3 3 3 2 3 5 8 3 2 1 1 2 2 2 2 2 1 0 1 1 1 1 1 1 2 2 2 3 3 3 3 3 3 3 3 4 4
2 3 5 7 6 3 4 4 4 4 4 5 9 10 8 5 5 4 4 3 2 2 2 1 1 1 1 1 1 1 2 2 2 2 3 3 3 4 3 3 3 3 3 4
3 3 4 6 6 4 6 8 7 8 8 8 10 10 12 7 6 5 4 3 3 2 2 2 2 2 2 1 1 1 1 2 2 2 3 3 3 3 2 2 3 3 3 3
2 2 2 5 5 5 7 9 9 9 9 9 9 12 9 5 4 4 4 3 3 4 3 3 3 3 3 2 2 2 2 2 2 2 3 3 2 2 2 2 2 2 2 2
2 2 1 4 4 3 8 9 9 7 7 8 11 12 6 4 5 6 5 5 5 4 4 4 3 4 4 3 3 3 3 2 2 2 3 3 3 3 3 2 2 2 3 2
4 3 2 1 1 6 9 3 6 7 8 8 7 7 5 6 6 5 4 5 4 4 4 4 3 3 3 3 3 2 2 2 2 2 2 3 3 3 2 2 3 3 2 3
6 5 3 2 3 8 8 3 3 5 7 6 7 6 5 3 2 3 3 4 4 4 4 4 3 3 3 3 3 2 1 1 2 2 3 3 3 3 2 2 3 2 2 2
3 4 4 3 3 7 7 3 2 1 6 4 5 6 4 1 2 5 3 2 3 3 2 3 2 2 2 3 2 2 2 2 3 3 3 3 3 4 4 3 3 2 2 3
3 3 5 6 6 9 7 3 2 3 7 3 4 5 4 5 6 4 3 3 2 2 2 2 2 2 3 3 2 3 3 3 3 2 2 2 3 3 3 3 2 2 2 2
7 5 6 5 6 10 4 3 5 7 3 2 3 3 4 5 4 4 3 2 2 1 1 1 1 2 2 2 3 3 4 3 2 2 2 2 2 2 2 2 2 2 3 2
7 8 6 9 9 5 4 6 5 3 3 3 3 4 3 4 4 4 3 2 2 2 2 1 2 2 2 1 2 4 3 2 2 2 2 2 2 2 2 3 2 2 2 2
4 3 4 5 7 6 5 4 3 3 4 4 4 4 4 4 5 4 3 3 2 2 2 2 1 2 2 2 2 3 3 2 2 2 2 2 2 2 2 2 2 3 3 3
5 4 4 6 6 5 5 5 5 4 4 4 4 3 3 3 4 4 3 3 3 2 2 2 2 2 3 3 2 2 2 2 2 2 2 2 2 2 2 2 3 3 4 4
5 7 7 8 7 5 6 4 3 3 4 4 3 4 3 3 4 3 3 3 3 2 2 2 2 3 3 2 2 2 2 2 3 2 2 2 2 2 2 2 2 3 4 5
Wind_Direction
83 108 216 220 213 217 216 236 259 263 265 265 256 266 270 269 262 258 254 246 241 244 250 227 202 188 174 168 171 175 170 166 157 158 159 157 174 174 173 172 163 160 161 161
49 244 243 240 231 236 236 250 267 284 282 269 270 273 269 257 246 240 240 242 237 243 255 234 189 176 176 177 176 175 173 169 173 173 168 160 157 171 176 166 160 162 163 168
203 250 245 230 239 244 251 239 250 265 302 302 295 292 272 265 259 254 248 236 229 211 214 209 187 193 180 183 182 178 175 170 170 157 139 124 100 93 110 157 168 169 166 173
251 268 270 252 255 238 255 248 246 259 279 279 254 284 283 269 276 262 255 239 231 221 203 200 192 199 192 193 184 176 169 162 160 153 153 154 161 180 195 182 179 169 167 172
254 259 252 250 254 228 238 263 249 256 241 274 248 241 280 276 260 255 248 240 238 226 201 199 199 192 187 180 173 171 161 158 159 163 161 162 163 174 151 145 157 166 173 173
254 258 229 232 272 227 252 13 5 17 87 261 229 209 273 244 234 246 249 254 244 232 204 189 188 153 143 144 154 156 155 161 162 164 165 168 167 161 153 157 169 180 180 185
296 278 263 148 5 328 93 94 21 345 300 252 231 212 252 260 249 216 220 236 229 197 182 144 120 130 138 143 153 155 152 161 165 165 168 170 173 170 174 174 177 179 187 206
243 275 239 212 202 207 210 160 169 210 237 275 273 235 258 287 307 93 115 138 123 143 160 178 168 157 162 162 154 153 156 163 166 168 172 167 166 173 179 180 177 185 199 207
209 258 282 257 245 167 175 204 188 162 251 267 260 277 297 2 24 32 46 54 29 297 190 188 185 173 174 173 171 168 167 166 170 172 168 167 171 179 181 180 181 188 195 196
187 254 283 286 352 291 184 162 116 154 198 256 274 257 249 261 269 345 17 348 328 310 305 10 176 210 195 190 183 164 166 170 173 171 175 170 171 180 179 172 182 189 194 194
175 205 290 315 206 211 187 158 150 165 193 200 265 268 236 220 212 203 251 299 295 300 288 266 275 244 203 111 153 167 168 166 169 177 175 166 172 174 172 179 191 192 193 192
187 156 247 255 261 240 204 195 158 172 240 217 235 268 294 240 219 192 267 306 300 298 292 267 231 190 158 181 201 201 189 185 191 186 178 173 176 172 176 187 197 193 193 195
164 138 10 330 314 324 250 223 188 166 177 208 223 262 317 357 337 294 271 275 282 296 298 317 256 195 207 221 212 222 226 213 205 187 179 175 180 186 193 197 195 193 193 192
132 165 191 214 234 219 244 250 218 178 207 236 238 259 284 294 294 295 285 272 256 254 236 261 252 220 216 230 225 225 254 240 215 190 182 188 196 197 197 191 189 201 196 191
123 205 233 251 263 247 242 248 235 223 221 226 250 256 266 263 260 266 273 273 271 264 257 248 238 229 223 234 252 249 251 253 222 195 196 204 197 189 185 187 200 200 197 198
133 188 247 274 272 265 265 255 241 238 235 238 257 267 266 264 255 260 258 253 258 255 254 253 245 227 224 229 232 243 254 248 220 205 205 204 190 184 187 197 198 190 192 193
182 156 183 271 299 331 271 241 221 227 227 215 237 253 272 275 252 240 237 237 235 242 250 251 246 238 235 234 227 232 243 246 225 212 205 197 188 193 196 186 180 191 194 190
171 160 180 251 38 243 250 239 213 226 248 238 246 264 260 255 261 246 226 223 235 244 245 246 244 251 256 247 238 232 238 228 223 214 207 199 188 189 187 181 191 198 196 194
183 165 174 186 233 271 284 259 202 215 260 239 242 265 273 279 304 276 248 230 233 235 235 236 236 235 241 243 240 235 246 233 222 218 215 205 190 185 187 204 213 203 192 203
169 158 170 191 215 242 256 261 233 152 275 254 237 252 270 251 254 260 257 262 253 241 226 231 240 234 235 241 226 222 236 233 232 224 217 207 188 184 196 209 211 197 195 208
167 182 200 211 232 258 256 252 114 174 253 264 241 245 239 225 235 262 276 269 245 236 238 235 230 236 243 238 210 221 229 236 243 232 207 196 191 190 194 192 195 184 188 193
186 186 199 190 217 250 239 156 193 228 259 263 258 250 244 254 267 275 267 259 250 248 252 242 245 265 264 231 203 220 235 238 231 207 200 199 197 196 180 174 189 185 181 192
204 197 193 199 218 238 198 210 232 228 247 257 256 264 253 261 269 274 267 251 243 245 253 255 240 265 282 253 210 223 243 225 201 195 207 207 198 194 183 182 188 188 188 198
248 213 201 242 258 259 253 256 271 257 250 261 260 261 253 257 263 269 264 256 250 254 258 262 245 254 280 279 243 231 236 207 185 196 212 204 189 200 200 201 199 203 206 210
223 193 216 250 268 285 268 246 251 264 272 279 281 267 253 253 266 265 262 260 251 256 265 245 237 245 262 272 264 246 218 190 193 204 208 208 201 202 210 217 218 220 223 217
207 195 202 232 231 221 247 248 241 251 266 267 276 287 281 258 258 265 264 267 261 258 261 251 255 255 262 267 272 270 229 190 189 207 213 211 209 208 208 218 260 260 245 240